GW3140 Weather Reports


Display with metric or nautical units.
time (UTC)temp
F
wind
direction
speed
MPH
gust
MPH
rain 1hr
in
rain 24hr
in
rain mn
in
humidity
%
barometer
mb
20260503230032 59 237 2.0 8.0 0.00 0.00 0.00 44 1008.0
20260503225512 59 247 2.0 10.0 0.00 0.00 0.00 43 1007.9
20260503225012 59 212 2.0 10.0 0.00 0.00 0.00 44 1008.1
20260503224529 59 274 3.0 10.0 0.00 0.00 0.00 43 1008.0
20260503224012 59 291 3.0 9.0 0.00 0.00 0.00 43 1008.1
20260503223513 59 193 1.0 6.0 0.00 0.00 0.00 44 1008.1
20260503223028 59 214 1.0 6.0 0.00 0.00 0.00 45 1008.2
20260503222510 59 185 2.0 7.0 0.00 0.00 0.00 43 1008.2
20260503222010 59 243 2.0 11.0 0.00 0.00 0.00 43 1008.3
20260503221528 59 234 3.0 11.0 0.00 0.00 0.00 43 1008.3
20260503221010 59 195 3.0 12.0 0.00 0.00 0.00 44 1008.3
20260503220514 59 279 3.0 12.0 0.00 0.00 0.00 45 1008.3
20260503220032 59 228 2.0 10.0 0.00 0.00 0.00 45 1008.3
20260503215511 59 253 3.0 10.0 0.00 0.00 0.00 44 1008.3
20260503215011 59 251 2.0 12.0 0.00 0.00 0.00 43 1008.3
20260503214540 58 197 3.0 12.0 0.00 0.00 0.00 43 1008.3
20260503214012 59 287 2.0 12.0 0.00 0.00 0.00 45 1008.3
20260503213512 59 280 2.0 10.0 0.00 0.00 0.00 42 1008.3
20260503213030 59 224 2.0 10.0 0.00 0.00 0.00 42 1008.3
20260503212512 59 185 3.0 10.0 0.00 0.00 0.00 42 1008.2
20260503212014 59 185 2.0 9.0 0.00 0.00 0.00 43 1008.3
20260503211529 59 237 3.0 10.0 0.00 0.00 0.00 42 1008.3
20260503211011 59 307 3.0 11.0 0.00 0.00 0.00 43 1008.2
20260503210510 59 194 3.0 11.0 0.00 0.00 0.00 43 1008.3
20260503210032 59 204 2.0 9.0 0.00 0.00 0.00 44 1008.3
20260503205510 59 204 2.0 9.0 0.00 0.00 0.00 44 1008.3
20260503205013 59 247 3.0 10.0 0.00 0.00 0.00 45 1008.3
20260503204534 58 189 3.0 10.0 0.00 0.00 0.00 47 1008.6
20260503204011 58 235 3.0 10.0 0.00 0.00 0.00 47 1008.7
20260503203511 57 180 3.0 12.0 0.00 0.00 0.00 47 1008.9
20260503203029 57 185 3.0 12.0 0.00 0.00 0.00 51 1008.9
20260503202510 56 175 3.0 11.0 0.00 0.00 0.00 52 1009.0
20260503202012 56 274 2.0 11.0 0.00 0.00 0.00 53 1009.1
20260503201532 56 180 3.0 8.0 0.00 0.00 0.00 52 1009.3
20260503201014 56 276 2.0 8.0 0.00 0.00 0.00 53 1009.6
20260503200513 56 315 2.0 9.0 0.00 0.00 0.00 52 1009.8
20260503200041 57 221 2.0 11.0 0.00 0.00 0.00 50 1009.7
20260503195512 57 239 3.0 11.0 0.00 0.00 0.00 49 1009.8
20260503195010 57 273 4.0 8.0 0.00 0.00 0.00 48 1009.7
20260503194530 57 260 1.0 4.0 0.00 0.00 0.00 50 1009.6
20260503194010 57 280 1.0 6.0 0.00 0.00 0.00 48 1009.7
20260503193511 57 301 0.0 7.0 0.00 0.00 0.00 48 1009.7
20260503193033 57 277 2.0 8.0 0.00 0.00 0.00 48 1009.9
20260503192512 57 274 2.0 9.0 0.00 0.00 0.00 47 1010.0
20260503192011 57 278 4.0 9.0 0.00 0.00 0.00 46 1009.9
20260503191529 57 268 2.0 10.0 0.00 0.00 0.00 47 1009.9
20260503191013 57 263 4.0 10.0 0.00 0.00 0.00 46 1010.0
20260503190513 57 270 2.0 11.0 0.00 0.00 0.00 46 1010.0
20260503190031 57 256 3.0 11.0 0.00 0.00 0.00 47 1010.1
20260503185512 57 264 3.0 11.0 0.00 0.00 0.00 48 1010.2
20260503185013 57 245 3.0 10.0 0.00 0.00 0.00 46 1010.2
20260503184539 57 249 3.0 8.0 0.00 0.00 0.00 45 1010.3
20260503184013 57 190 2.0 8.0 0.00 0.00 0.00 46 1010.3
20260503183512 57 165 2.0 7.0 0.00 0.00 0.00 47 1010.2
20260503183030 57 233 2.0 11.0 0.00 0.00 0.00 47 1010.2
20260503182511 57 224 4.0 11.0 0.00 0.00 0.00 48 1010.3
20260503182017 57 269 4.0 14.0 0.00 0.00 0.00 49 1010.4
20260503181531 57 272 5.0 19.0 0.00 0.00 0.00 48 1010.7
20260503181010 58 268 8.0 19.0 0.00 0.00 0.00 46 1010.7
20260503180512 59 273 6.0 15.0 0.00 0.00 0.00 42 1010.4
20260503180044 59 271 5.0 15.0 0.00 0.00 0.00 43 1010.3
20260503175513 59 255 4.0 13.0 0.00 0.00 0.00 44 1010.3
20260503175012 59 257 7.0 13.0 0.00 0.00 0.00 42 1010.4
20260503174543 59 301 5.0 13.0 0.00 0.00 0.00 41 1010.4
20260503174010 59 278 4.0 13.0 0.00 0.00 0.00 40 1010.4
20260503173513 59 268 4.0 9.0 0.00 0.00 0.00 38 1010.4
20260503173039 60 257 4.0 15.0 0.00 0.00 0.00 38 1010.3
20260503172510 60 239 4.0 15.0 0.00 0.00 0.00 38 1010.4
20260503172011 61 270 5.0 14.0 0.00 0.00 0.00 36 1010.3
20260503171528 62 152 4.0 12.0 0.00 0.00 0.00 36 1010.3
20260503171013 61 242 5.0 11.0 0.00 0.00 0.00 37 1010.4
20260503170512 61 195 3.0 11.0 0.00 0.00 0.00 38 1010.3
20260503151013 55 266 2.0 11.0 0.00 0.00 0.00 47 1012.0
20260503150517 54 245 3.0 13.0 0.00 0.00 0.00 47 1012.0
20260503131012 43 231 1.0 6.0 0.00 0.00 0.00 63 1013.3
20260503130511 43 170 1.0 6.0 0.00 0.00 0.00 63 1013.5
20260503110513 35 0 0.0 4.0 0.00 0.00 0.00 76 1013.6
20260503090513 31 0 0.0 0.0 0.00 0.00 0.00 82 1014.1
20260503081539 32 0 0.0 0.0 0.00 0.00 0.00 80 1014.0
20260503081013 32 0 0.0 0.0 0.00 0.00 0.00 80 1014.1
20260503080510 32 0 0.0 0.0 0.00 0.00 0.00 80 1014.0
20260503072514 33 0 0.0 0.0 0.00 0.00 0.00 76 1014.0
20260503072012 33 0 0.0 0.0 0.00 0.00 0.00 75 1014.0
20260503071529 33 0 0.0 0.0 0.00 0.00 0.00 75 1013.9
20260503071012 33 0 0.0 0.0 0.00 0.00 0.00 75 1013.8
20260503070513 33 0 0.0 0.0 0.00 0.00 0.00 75 1013.9
20260503055013 33 0 0.0 1.0 0.00 0.00 0.00 74 1014.6
20260503054530 33 0 0.0 1.0 0.00 0.00 0.00 75 1014.7
20260503054013 33 0 0.0 0.0 0.00 0.00 0.00 74 1014.7
20260503053513 33 0 0.0 0.0 0.00 0.00 0.00 74 1014.7
20260503053030 33 0 0.0 0.0 0.00 0.00 0.00 74 1014.8
20260503052511 33 0 0.0 0.0 0.00 0.00 0.00 74 1014.9
20260503052011 33 0 0.0 0.0 0.00 0.00 0.00 74 1015.0
20260503051536 33 0 0.0 0.0 0.00 0.00 0.00 73 1015.0
20260503051012 33 0 0.0 0.0 0.00 0.00 0.00 72 1015.0
20260503050512 33 0 0.0 2.0 0.00 0.00 0.00 72 1015.1
20260503050030 33 0 0.0 2.0 0.00 0.00 0.00 72 1015.1
20260503045519 34 166 0.0 2.0 0.00 0.00 0.00 72 1015.1
20260503045011 34 0 0.0 1.0 0.00 0.00 0.00 71 1015.1
20260503044532 34 0 0.0 0.0 0.00 0.00 0.00 71 1015.2
20260503044011 34 0 0.0 1.0 0.00 0.00 0.00 71 1015.2
20260503043513 34 0 0.0 1.0 0.00 0.00 0.00 71 1015.2
20260503043030 34 0 0.0 2.0 0.00 0.00 0.00 70 1015.3
20260503042513 34 0 0.0 2.0 0.00 0.00 0.00 70 1015.3
20260503042012 35 0 0.0 2.0 0.00 0.00 0.00 70 1015.4
20260503041533 35 0 0.0 2.0 0.00 0.00 0.00 69 1015.4
20260503041014 35 0 0.0 1.0 0.00 0.00 0.00 69 1015.4
20260503040512 35 0 0.0 0.0 0.00 0.00 0.00 69 1015.4
20260503040033 35 0 0.0 0.0 0.00 0.00 0.00 69 1015.4
20260503035511 35 0 0.0 3.0 0.00 0.00 0.00 68 1015.4
20260503035012 35 0 0.0 3.0 0.00 0.00 0.00 68 1015.5
20260503034532 35 0 0.0 2.0 0.00 0.00 0.00 67 1015.6
20260503034014 35 0 0.0 1.0 0.00 0.00 0.00 67 1015.5
20260503033514 35 0 0.0 1.0 0.00 0.00 0.00 67 1015.6
20260503033036 35 0 0.0 2.0 0.00 0.00 0.00 67 1015.6
20260503032512 35 0 0.0 2.0 0.00 0.00 0.00 67 1015.6
20260503032012 36 0 0.0 2.0 0.00 0.00 0.00 67 1015.7
20260503031530 36 0 0.0 2.0 0.00 0.00 0.00 66 1015.7
20260503031012 35 0 0.0 2.0 0.00 0.00 0.00 66 1015.7
20260503030510 35 200 0.0 2.0 0.00 0.00 0.00 66 1015.7
20260503030047 35 0 0.0 1.0 0.00 0.00 0.00 66 1015.6
20260503025511 35 0 0.0 2.0 0.00 0.00 0.00 66 1015.7
20260503025013 35 0 0.0 2.0 0.00 0.00 0.00 67 1015.8
20260503024535 35 0 0.0 0.0 0.00 0.00 0.00 67 1015.8
20260503024013 35 0 0.0 0.0 0.00 0.00 0.00 68 1015.9
20260503023513 35 0 0.0 0.0 0.00 0.00 0.00 67 1016.0
20260503023033 36 0 0.0 0.0 0.00 0.00 0.00 69 1016.0
20260503022513 36 0 0.0 0.0 0.00 0.00 0.00 68 1016.1
20260503022012 36 0 0.0 1.0 0.00 0.00 0.00 67 1016.0
20260503021534 36 0 0.0 1.0 0.00 0.00 0.00 66 1016.0
20260503021011 36 274 0.0 0.0 0.00 0.00 0.00 64 1016.0
20260503020511 36 0 0.0 0.0 0.00 0.00 0.00 64 1016.0
20260503020031 37 0 0.0 0.0 0.00 0.00 0.00 65 1016.1
20260503015510 37 0 0.0 0.0 0.00 0.00 0.00 65 1016.0
20260503015013 37 0 0.0 0.0 0.00 0.00 0.00 63 1016.0
20260503014530 37 0 0.0 0.0 0.00 0.00 0.00 62 1016.0
20260503014010 37 0 0.0 0.0 0.00 0.00 0.00 61 1016.0
20260503013511 37 0 0.0 0.0 0.00 0.00 0.00 59 1015.9
20260503013028 38 0 0.0 0.0 0.00 0.00 0.00 60 1016.0
20260503012513 38 0 0.0 0.0 0.00 0.00 0.00 61 1015.9
20260503012012 38 0 0.0 0.0 0.00 0.00 0.00 57 1015.9
20260503011528 39 0 0.0 0.0 0.00 0.00 0.00 57 1016.0
20260503011012 39 0 0.0 0.0 0.00 0.00 0.00 58 1015.9
20260503010514 39 0 0.0 0.0 0.00 0.00 0.00 57 1015.9
20260503010031 40 0 0.0 0.0 0.00 0.00 0.00 56 1015.8
20260503005511 40 0 0.0 0.0 0.00 0.00 0.00 56 1015.8
20260503005012 41 0 0.0 0.0 0.00 0.00 0.00 58 1015.9
20260503004530 41 0 0.0 1.0 0.00 0.00 0.00 53 1015.8
20260503004012 41 0 0.0 1.0 0.00 0.00 0.00 54 1015.8
20260503003511 42 0 0.0 0.0 0.00 0.00 0.00 51 1015.8
20260503003032 42 0 0.0 0.0 0.00 0.00 0.00 51 1015.8
20260503002513 42 0 0.0 0.0 0.00 0.00 0.00 51 1015.8
20260503002013 42 0 0.0 2.0 0.00 0.00 0.00 48 1015.8
20260503001528 42 0 0.0 2.0 0.00 0.00 0.00 46 1015.8
20260503001012 43 276 0.0 2.0 0.00 0.00 0.00 46 1015.7
20260503000509 43 0 0.0 2.0 0.00 0.00 0.00 45 1015.7
20260503000033 43 0 0.0 3.0 0.00 0.00 0.00 44 1015.7
20260502235513 43 276 1.0 4.0 0.00 0.00 0.00 45 1015.7
20260502235013 43 278 2.0 4.0 0.00 0.00 0.00 43 1015.7
20260502234532 43 0 0.0 3.0 0.00 0.00 0.00 45 1015.6
20260502234011 43 0 1.0 4.0 0.00 0.00 0.00 46 1015.7
20260502233512 44 320 1.0 4.0 0.00 0.00 0.00 45 1015.7
20260502233029 44 316 1.0 4.0 0.00 0.00 0.00 42 1015.7
20260502232511 44 321 0.0 3.0 0.00 0.00 0.00 42 1015.8
20260502232012 44 329 1.0 4.0 0.00 0.00 0.00 42 1015.8
20260502231531 44 307 1.0 5.0 0.00 0.00 0.00 43 1015.8
20260502231013 44 281 2.0 5.0 0.00 0.00 0.00 43 1015.9
20260502230512 45 318 0.0 7.0 0.00 0.00 0.00 43 1015.9